Weather History for KTVR - November, 2013

Change the Weather History Date:

Saturday, November 2, 2013

  Actual Average Record
Temperature  
Mean Temperature 53 °F 60 °F  
Max Temperature 69 °F 73 °F 87 °F (2012)
Min Temperature 37 °F 47 °F 27 °F (1963)
Degree Days  
Heating Degree Days 12 7  
Month to date heating degree days 18 13  
Since 1 July heating degree days 119 115  
Cooling Degree Days 0 1  
Month to date cooling degree days 0 3  
Year to date cooling degree days 2248 2212  
Growing Degree Days 6 (Base 50)    
Moisture  
Dew Point 46 °F    
Average Humidity 68    
Maximum Humidity 96    
Minimum Humidity 39    
Precipitation  
Precipitation 0.00 in 0.15 in 1.86 in (1984)
Month to date precipitation 0.00 0.29  
Year to date precipitation 57.35 44.42  
Sea Level Pressure  
Sea Level Pressure 30.07 in    
Wind  
Wind Speed 6 mph (NNW)    
Max Wind Speed 15 mph    
Max Gust Speed 22 mph    
Visibility 7 miles    
Events Fog    
T = Trace of Precipitation, MM = Missing Value Source: NWS Daily Summary

Daily Weather History Graph

Daily Weather History Graph

Search for Another Location

Airport or City:

Trip Planner

Search our weather history database for the weather conditions in past years. The results will help you decide how hot, cold, wet, or windy it might be!

Date:

Astronomy

Nov. 02, 2013 Rise Set
Actual Time 7:22 AM CDT 6:12 PM CDT
Civil Twilight 6:56 AM CDT 6:37 PM CDT
Nautical Twilight 6:27 AM CDT 7:07 PM CDT
Astronomical Twilight 5:59 AM CDT 7:35 PM CDT
Moon 6:22 AM CDT (11/2) 5:43 PM CDT (11/2)
Length of Visible Light 11h 41m
Length of Day
10h 50m
Waning Crescent, 1% of the Moon is Illuminated
Nov 2
Waning Crescent
Nov 3
New
Nov 9
First Quarter
Nov 17
Full
Nov 25
Last Quarter

Hourly Weather History & Observations

Time (CDT) Temp. Windchill Dew Point Humidity Pressure Visibility Wind Dir Wind Speed Gust Speed Precip Events Conditions
12:07 AM 48.0 °F - 46.0 °F 93% 29.96 in 0.2 mi Calm Calm - N/A Fog Fog
12:16 AM 45.0 °F - 44.1 °F 97% 29.96 in 0.2 mi Calm Calm - N/A Fog Fog
12:36 AM 52.0 °F - 51.1 °F 97% 29.94 in 2.5 mi South 5.8 mph - N/A   Clear
12:43 AM 51.1 °F - 51.1 °F 100% 29.94 in 6.0 mi South 3.5 mph - N/A   Clear
12:48 AM 48.2 °F - 48.2 °F 100% 29.94 in 1.8 mi Calm Calm - N/A   Clear
12:53 AM 48.0 °F - 46.9 °F 96% 29.96 in 0.8 mi Calm Calm - N/A   Clear
1:38 AM 45.0 °F - 45.0 °F 100% 29.95 in 1.5 mi Calm Calm - N/A   Clear
1:41 AM 45.0 °F - 45.0 °F 100% 29.95 in 3.0 mi Calm Calm - N/A   Clear
1:53 AM 48.0 °F - 46.9 °F 96% 29.97 in 4.0 mi South 3.5 mph - N/A   Clear
2:53 AM 48.0 °F - 46.0 °F 93% 29.98 in 5.0 mi South 3.5 mph - N/A   Clear
3:02 AM 48.9 °F - 48.0 °F 97% 29.96 in 2.5 mi Calm Calm - N/A   Clear
3:09 AM 48.0 °F - 46.9 °F 96% 29.96 in 9.0 mi Calm Calm - N/A   Clear
3:53 AM 51.1 °F - 50.0 °F 96% 29.99 in 10.0 mi Calm Calm - N/A   Clear
4:53 AM 48.9 °F - 46.9 °F 93% 30.00 in 8.0 mi Calm Calm - N/A   Clear
5:53 AM 53.1 °F - 51.1 °F 93% 30.03 in 10.0 mi NW 4.6 mph - N/A   Clear
6:53 AM 53.1 °F - 50.0 °F 89% 30.06 in 10.0 mi NW 5.8 mph - N/A   Partly Cloudy
7:53 AM 52.0 °F - 50.0 °F 93% 30.09 in 10.0 mi NW 5.8 mph - N/A   Partly Cloudy
8:53 AM 57.0 °F - 52.0 °F 83% 30.11 in 10.0 mi NW 5.8 mph - N/A   Clear
9:53 AM 61.0 °F - 50.0 °F 67% 30.13 in 10.0 mi NNW 4.6 mph - N/A   Clear
10:53 AM 64.9 °F - 48.0 °F 54% 30.14 in 10.0 mi Variable 6.9 mph - N/A   Clear
11:53 AM 66.9 °F - 48.0 °F 51% 30.15 in 10.0 mi NW 9.2 mph 16.1 mph N/A   Clear
12:53 PM 66.9 °F - 44.1 °F 44% 30.13 in 10.0 mi NW 13.8 mph 20.7 mph N/A   Clear
1:53 PM 68.0 °F - 44.1 °F 42% 30.12 in 10.0 mi North 12.7 mph 19.6 mph N/A   Clear
2:53 PM 68.0 °F - 43.0 °F 40% 30.11 in 10.0 mi NW 11.5 mph 19.6 mph N/A   Clear
3:53 PM 66.9 °F - 43.0 °F 42% 30.11 in 10.0 mi North 10.4 mph 18.4 mph N/A   Clear
4:53 PM 64.9 °F - 43.0 °F 45% 30.12 in 10.0 mi NNW 9.2 mph - N/A   Clear
5:53 PM 59.0 °F - 43.0 °F 55% 30.14 in 10.0 mi North 10.4 mph - N/A   Clear
6:53 PM 54.0 °F - 44.1 °F 69% 30.17 in 10.0 mi North 5.8 mph - N/A   Clear
7:53 PM 53.1 °F - 44.1 °F 71% 30.20 in 10.0 mi North 5.8 mph - N/A   Scattered Clouds
8:53 PM 51.1 °F - 43.0 °F 74% 30.22 in 10.0 mi North 5.8 mph - N/A   Clear
9:53 PM 44.1 °F - 42.1 °F 93% 30.24 in 10.0 mi Calm Calm - N/A   Clear
10:53 PM 50.0 °F - 44.1 °F 80% 30.25 in 10.0 mi NNE 5.8 mph - N/A   Clear
11:53 PM 42.1 °F 39.2 °F 39.9 °F 92% 30.25 in 10.0 mi North 4.6 mph - N/A   Clear